Home   Weather   Cardiff   Past weeks

Flag for United Kingdom Past Weather in Cardiff, Wales, United Kingdom — Yesterday and Last 2 Weeks

Now
54 °F

Cool.


Feels Like: 49 °F
Forecast: 46 / 56 °F
Wind: 15 mph from Southeast

Location: Wales Airport

Current Time: Apr 30, 2017 at 10:05:30 am

Latest Report: Apr 30, 2017 at 9:50 am


Visibility: N/A

Pressure: 29.47 "Hg

Humidity: 72%

Dew Point: 45 °F

Location of CardiffLocation

Past Weather in Cardiff — Graph

°F

Cardiff Temperature Yesterday

Maximum temperature yesterday: 57 °F (at 5:20 pm)
Minimum temperature yesterday: 46 °F (at 12:20 am)
Average temperature yesterday: 51 °F

High & Low Weather Summary for the Past Weeks

 TemperatureHumidityPressure
High61 °F (Apr 22, 11:20 am)100% (Apr 15, 11:50 pm)30.63 "Hg (Apr 15, 11:50 pm)
Low34 °F (Apr 25, 3:20 am)30% (Apr 25, 2:20 pm)29.50 "Hg (Apr 30, 8:20 am)
Average48 °F75%30.23 "Hg
* Reported Apr 15 8:20 am — Apr 30 8:50 am, Cardiff, Weather by CustomWeather, © 2017

Note: Actual official high and low records may vary slightly from our data, if they occured in-between our weather recording intervals... More about our weather records

Advertising

Cardiff Weather History for the Previous 24 Hours

Scroll right to see more
 ConditionsComfort  
Time TempWeatherWind HumidityBarometerVisibility
8:50 am
Sun, Apr 30
54 °FCool.12 mph72%29.50 "HgN/A
8:20 am52 °FCool.17 mph72%29.50 "HgN/A
7:50 am52 °FCool.16 mph72%29.53 "HgN/A
7:20 am52 °FCool.21 mph72%29.53 "HgN/A
6:50 am52 °FCool.18 mph72%29.53 "HgN/A
6:20 am50 °FCool.22 mph76%29.53 "HgN/A
5:50 am50 °FCool.20 mph76%29.53 "HgN/A
5:20 am52 °FCool.21 mph72%29.53 "HgN/A
4:50 am52 °FCool.18 mph72%29.56 "HgN/A
4:20 am52 °FCool.21 mph72%29.56 "HgN/A
3:50 am52 °FCool.21 mph72%29.56 "HgN/A
3:20 am52 °FCool.18 mph72%29.59 "HgN/A
2:50 am52 °FCool.20 mph72%29.59 "HgN/A
2:20 am52 °FCool.20 mph72%29.62 "HgN/A
1:50 am52 °FCool.21 mph72%29.62 "HgN/A
1:20 am52 °FCool.21 mph72%29.65 "HgN/A
12:50 am52 °FCool.21 mph72%29.65 "HgN/A
12:20 am52 °FCool.17 mph72%29.68 "HgN/A
11:50 pm
Sat, Apr 29
52 °FCool.16 mph72%29.68 "HgN/A
11:20 pm52 °FCool.16 mph72%29.68 "HgN/A
10:50 pm52 °FCool.16 mph72%29.71 "HgN/A
10:20 pm52 °FCool.17 mph72%29.71 "HgN/A
9:50 pm52 °FCool.17 mph72%29.74 "HgN/A
9:20 pm52 °FCool.16 mph72%29.74 "HgN/A
8:50 pm52 °FCool.17 mph67%29.74 "HgN/A
8:20 pm52 °FCool.16 mph67%29.77 "HgN/A
7:50 pm54 °FPassing clouds.16 mph67%29.77 "HgN/A
7:20 pm54 °FCool.13 mph63%29.77 "HgN/A
6:50 pm55 °FCool.12 mph63%29.77 "HgN/A
6:20 pm57 °FRefreshingly cool.9 mph51%29.80 "HgN/A
5:50 pm55 °FCool.13 mph63%29.80 "HgN/A
5:20 pm57 °FRefreshingly cool.13 mph55%29.83 "HgN/A
4:50 pm54 °FCool.13 mph67%29.83 "HgN/A
4:20 pm55 °FOvercast.12 mph59%29.83 "HgN/A
3:50 pm54 °FCool.14 mph67%29.86 "HgN/A
3:20 pm54 °FMore clouds than sun.13 mph67%29.86 "HgN/A
2:50 pm55 °FCool.14 mph63%29.89 "HgN/A
1:50 pm52 °FMore clouds than sun.15 mph72%29.89 "HgN/A
1:20 pm55 °FRefreshingly cool.14 mph59%29.89 "HgN/A
12:50 pm54 °FOvercast.12 mph63%29.92 "HgN/A
12:20 pm54 °FCool.8 mph63%29.92 "HgN/A
11:50 am52 °FOvercast.8 mph72%29.95 "HgN/A
11:20 am50 °FOvercast.8 mph76%29.95 "HgN/A
10:50 am50 °FOvercast.9 mph82%29.95 "HgN/A
10:20 am50 °FOvercast.9 mph82%29.95 "HgN/A
Weather by CustomWeather, © 2017

See weather overviewHow to use our weather pages